Regional Weather Roundup
Issued by NWS Sioux Falls, SD

Home | Current Version | Previous Version | Graphics & Text | Print | Product List | Glossary On
Versions: 1 2 3 4 5 6 7 8 9 10 11 12 13 14 15 16 17 18 19 20 21 22 23 24 25 26 27 28 29 30 31 32 33 34 35 36 37 38 39 40 41 42 43 44 45 46 47 48 49 50
000
ASUS43 KFSD 172202
RWRFSD

WEATHER ROUNDUP FOR SE SOUTH DAKOTA/SW MINNESOTA/NW IOWA
NATIONAL WEATHER SERVICE SIOUX FALLS SD
500 PM CDT THU APR 17 2014

NOTE: "FAIR" INDICATES FEW OR NO CLOUDS BELOW 12,000 FEET WITH NO
SIGNIFICANT WEATHER AND OR OBSTRUCTIONS TO VISIBILITY.


SDZ038>040-050-052>070-172300-
SOUTHEAST SOUTH DAKOTA

CITY           SKY/WX    TMP DP  RH WIND       PRES   REMARKS
CHAMBERLAIN      N/A     47  19  33 S15       30.21F
HURON          MOSUNNY   45  18  34 E7        30.26F
MADISON        FAIR      41  18  38 CALM      30.26F
MITCHELL       CLOUDY    48  16  27 SW6       30.27F
SIOUX FALLS    PTSUNNY   45  21  38 CALM      30.27F
WINNER         CLOUDY    42  29  59 SE14      30.19F
YANKTON        MOSUNNY   48  21  34 CALM      30.27S
$$

MNZ071-072-080-081-089-090-097-098-172300-
SOUTHWEST MINNESOTA

CITY           SKY/WX    TMP DP  RH WIND       PRES   REMARKS
FAIRMONT       PTSUNNY   43  28  56 W7        30.30S
JACKSON        SUNNY     43  28  56 N7        30.28S
LUVERNE        MOSUNNY   43  25  49 NE8       30.27F
MARSHALL       MOSUNNY   37  21  52 N7        30.30S
MONTEVIDEO     SUNNY     43  23  45 NE6       30.30F
PIPESTONE      MOSUNNY   39  19  45 E5        30.26F
REDWOOD FALLS  MOSUNNY   37  25  61 W6        30.30F
TRACY          MOSUNNY   37  26  64 CALM      30.30S
WINDOM         MOSUNNY   41  28  60 N7        30.29S
WORTHINGTON    SUNNY     41  21  45 N8        30.29F
$$

IAZ001>003-012>014-020>022-031-032-NEZ013-014-SDZ071-172300-
NORTHWEST IOWA

CITY           SKY/WX    TMP DP  RH WIND       PRES   REMARKS
CHEROKEE       SUNNY     52  27  37 CALM      30.26S
DENISON        SUNNY     52  25  35 CALM      30.24S
ESTHERVILLE    PTSUNNY   43  30  60 N9        30.27S
SHELDON        SUNNY     46  27  46 NE7       30.25F
SIOUX CITY     SUNNY     53  24  32 NE6       30.26F
SPENCER        SUNNY     46  28  49 NE7       30.27F
STORM LAKE     SUNNY     48  27  43 NE9       30.25F
$$

ABBREVIATIONS USED IN REMARKS
   TC - TEMPERATURE IN CELSIUS
  WCI - WIND CHILL INDEX
   HX - HEAT INDEX
  VSB - VISIBILITY




USA.gov is the U.S. government's official web portal to all federal, state and local government web resources and services.